TimeCDT,TemperatureF,Dew PointF,Humidity,Sea Level PressureIn,VisibilityMPH,Wind Direction,Wind SpeedMPH,Gust SpeedMPH,PrecipitationIn,Events,Conditions,WindDirDegrees,DateUTC
12:15 AM,57.2,32.0,38,29.85,10.0,SSW,13.8,21.9,N/A,,Scattered Clouds,200,2012-10-09 05:15:00
12:35 AM,57.2,33.8,41,29.85,10.0,SSW,12.7,19.6,N/A,,Scattered Clouds,200,2012-10-09 05:35:00
12:55 AM,57.2,33.8,41,29.85,10.0,SSW,12.7,-,N/A,,Scattered Clouds,200,2012-10-09 05:55:00
1:15 AM,57.2,33.8,41,29.85,10.0,SSW,12.7,-,N/A,,Scattered Clouds,210,2012-10-09 06:15:00
1:55 AM,55.4,33.8,44,29.88,10.0,West,6.9,-,N/A,,Scattered Clouds,260,2012-10-09 06:55:00
2:15 AM,55.4,35.6,47,29.88,10.0,SW,6.9,-,N/A,,Scattered Clouds,220,2012-10-09 07:15:00
3:15 AM,57.2,35.6,44,29.87,10.0,SSW,9.2,-,N/A,,Scattered Clouds,210,2012-10-09 08:15:00
3:35 AM,57.2,35.6,44,29.86,10.0,SSW,11.5,-,N/A,,Scattered Clouds,200,2012-10-09 08:35:00
3:55 AM,57.2,35.6,44,29.85,10.0,SSW,11.5,-,N/A,,Scattered Clouds,200,2012-10-09 08:55:00
4:15 AM,55.4,35.6,47,29.86,10.0,SSW,11.5,-,N/A,,Scattered Clouds,200,2012-10-09 09:15:00
4:35 AM,55.4,35.6,47,29.85,10.0,SSW,11.5,-,N/A,,Scattered Clouds,200,2012-10-09 09:35:00
4:55 AM,55.4,35.6,47,29.85,10.0,South,11.5,-,N/A,,Clear,190,2012-10-09 09:55:00
5:15 AM,55.4,35.6,47,29.85,10.0,South,11.5,-,N/A,,Scattered Clouds,190,2012-10-09 10:15:00
5:35 AM,55.4,35.6,47,29.85,10.0,South,10.4,-,N/A,,Scattered Clouds,190,2012-10-09 10:35:00
5:55 AM,55.4,35.6,47,29.85,10.0,SSW,11.5,-,N/A,,Scattered Clouds,200,2012-10-09 10:55:00
6:15 AM,55.4,35.6,47,29.85,10.0,SSW,9.2,-,N/A,,Scattered Clouds,200,2012-10-09 11:15:00
6:35 AM,55.4,35.6,47,29.84,10.0,SSW,13.8,-,N/A,,Scattered Clouds,200,2012-10-09 11:35:00
6:55 AM,55.4,35.6,47,29.86,10.0,SW,9.2,-,N/A,,Scattered Clouds,220,2012-10-09 11:55:00
7:15 AM,53.6,35.6,51,29.87,10.0,SW,6.9,-,N/A,,Scattered Clouds,230,2012-10-09 12:15:00
7:35 AM,51.8,35.6,54,29.87,10.0,SW,4.6,-,N/A,,Scattered Clouds,230,2012-10-09 12:35:00
7:55 AM,51.8,37.4,58,29.88,10.0,SW,4.6,-,N/A,,Clear,230,2012-10-09 12:55:00
8:15 AM,51.8,37.4,58,29.89,10.0,WSW,4.6,-,N/A,,Clear,250,2012-10-09 13:15:00
8:35 AM,53.6,37.4,54,29.89,10.0,SW,5.8,-,N/A,,Clear,230,2012-10-09 13:35:00
8:55 AM,53.6,37.4,54,29.89,10.0,SW,5.8,-,N/A,,Clear,230,2012-10-09 13:55:00
9:15 AM,55.4,37.4,51,29.90,10.0,WSW,6.9,-,N/A,,Clear,240,2012-10-09 14:15:00
9:35 AM,55.4,37.4,51,29.90,10.0,WSW,6.9,-,N/A,,Clear,240,2012-10-09 14:35:00
9:55 AM,55.4,37.4,51,29.91,10.0,West,9.2,-,N/A,,Clear,260,2012-10-09 14:55:00
10:15 AM,57.2,37.4,48,29.91,10.0,WSW,4.6,-,N/A,,Clear,250,2012-10-09 15:15:00
10:35 AM,59.0,37.4,45,29.92,10.0,NNW,6.9,-,N/A,,Clear,340,2012-10-09 15:35:00
10:55 AM,60.8,39.2,45,29.91,10.0,North,15.0,20.7,N/A,,Clear,10,2012-10-09 15:55:00
11:15 AM,60.8,41.0,48,29.93,10.0,North,13.8,-,N/A,,Clear,360,2012-10-09 16:15:00
11:35 AM,60.8,41.0,48,29.93,10.0,North,15.0,20.7,N/A,,Scattered Clouds,360,2012-10-09 16:35:00
11:55 AM,62.6,41.0,45,29.94,10.0,North,17.3,23.0,N/A,,Mostly Cloudy,350,2012-10-09 16:55:00
12:15 PM,60.8,41.0,48,29.96,10.0,North,18.4,25.3,N/A,,Overcast,350,2012-10-09 17:15:00
12:35 PM,60.8,41.0,48,29.96,10.0,North,16.1,21.9,N/A,,Mostly Cloudy,350,2012-10-09 17:35:00
12:55 PM,60.8,39.2,45,29.96,10.0,NNW,16.1,21.9,N/A,,Mostly Cloudy,340,2012-10-09 17:55:00
1:15 PM,60.8,39.2,45,29.96,10.0,North,18.4,25.3,N/A,,Mostly Cloudy,350,2012-10-09 18:15:00
1:35 PM,60.8,37.4,42,29.97,10.0,North,19.6,24.2,N/A,,Scattered Clouds,350,2012-10-09 18:35:00
1:55 PM,60.8,37.4,42,29.97,10.0,North,16.1,20.7,N/A,,Clear,350,2012-10-09 18:55:00
2:15 PM,60.8,35.6,39,29.97,10.0,North,15.0,23.0,N/A,,Clear,350,2012-10-09 19:15:00
2:35 PM,62.6,33.8,34,29.97,10.0,North,13.8,-,N/A,,Scattered Clouds,350,2012-10-09 19:35:00
2:55 PM,62.6,26.6,26,29.98,10.0,NNW,15.0,21.9,N/A,,Clear,330,2012-10-09 19:55:00
3:15 PM,60.8,28.4,29,29.99,10.0,North,11.5,20.7,N/A,,Clear,350,2012-10-09 20:15:00
3:35 PM,59.0,24.8,27,30.00,10.0,NNW,11.5,17.3,N/A,,Scattered Clouds,340,2012-10-09 20:35:00
3:55 PM,59.0,17.6,20,30.00,10.0,North,13.8,19.6,N/A,,Scattered Clouds,350,2012-10-09 20:55:00
4:15 PM,59.0,17.6,20,30.01,10.0,North,9.2,-,N/A,,Scattered Clouds,350,2012-10-09 21:15:00
4:35 PM,57.2,15.8,20,30.02,10.0,NNW,11.5,20.7,N/A,,Clear,340,2012-10-09 21:35:00
4:55 PM,55.4,12.2,18,30.03,10.0,NNW,11.5,18.4,N/A,,Scattered Clouds,330,2012-10-09 21:55:00
5:15 PM,55.4,15.8,21,30.02,10.0,North,10.4,16.1,N/A,,Scattered Clouds,350,2012-10-09 22:15:00
5:35 PM,55.4,17.6,23,30.03,10.0,NNW,15.0,21.9,N/A,,Scattered Clouds,340,2012-10-09 22:35:00
5:55 PM,55.4,17.6,23,30.04,10.0,North,6.9,-,N/A,,Scattered Clouds,350,2012-10-09 22:55:00
6:15 PM,55.4,17.6,23,30.04,10.0,North,6.9,-,N/A,,Clear,350,2012-10-09 23:15:00
6:35 PM,51.8,19.4,28,30.04,10.0,NNW,3.5,-,N/A,,Clear,340,2012-10-09 23:35:00
6:55 PM,51.8,17.6,26,30.04,10.0,Calm,Calm,-,N/A,,Clear,0,2012-10-09 23:55:00
7:15 PM,48.2,19.4,32,30.05,10.0,Calm,Calm,-,N/A,,Scattered Clouds,0,2012-10-10 00:15:00
7:35 PM,44.6,24.8,46,30.05,10.0,Calm,Calm,-,N/A,,Scattered Clouds,0,2012-10-10 00:35:00
7:55 PM,44.6,24.8,46,30.06,10.0,Calm,Calm,-,N/A,,Scattered Clouds,0,2012-10-10 00:55:00
8:15 PM,42.8,24.8,49,30.07,10.0,Calm,Calm,-,N/A,,Scattered Clouds,0,2012-10-10 01:15:00
8:35 PM,42.8,24.8,49,30.08,10.0,Calm,Calm,-,N/A,,Scattered Clouds,0,2012-10-10 01:35:00
8:55 PM,41.0,24.8,53,30.09,10.0,WNW,3.5,-,N/A,,Scattered Clouds,290,2012-10-10 01:55:00
9:15 PM,39.2,26.6,61,30.10,10.0,Calm,Calm,-,N/A,,Scattered Clouds,0,2012-10-10 02:15:00
9:35 PM,39.2,24.8,56,30.11,10.0,Calm,Calm,-,N/A,,Scattered Clouds,0,2012-10-10 02:35:00
9:55 PM,39.2,24.8,56,30.12,10.0,Calm,Calm,-,N/A,,Scattered Clouds,0,2012-10-10 02:55:00
10:15 PM,37.4,24.8,60,30.13,10.0,Calm,Calm,-,N/A,,Scattered Clouds,0,2012-10-10 03:15:00
10:35 PM,37.4,24.8,60,30.14,10.0,Calm,Calm,-,N/A,,Scattered Clouds,0,2012-10-10 03:35:00
10:55 PM,35.6,24.8,65,30.15,10.0,Calm,Calm,-,N/A,,Scattered Clouds,0,2012-10-10 03:55:00
11:15 PM,33.8,24.8,70,30.16,10.0,Calm,Calm,-,N/A,,Scattered Clouds,0,2012-10-10 04:15:00
11:35 PM,33.8,24.8,70,30.16,10.0,Calm,Calm,-,N/A,,Scattered Clouds,0,2012-10-10 04:35:00
11:55 PM,33.8,24.8,70,30.16,10.0,Calm,Calm,-,N/A,,Scattered Clouds,0,2012-10-10 04:55:00